Previsão horária em Cegielnia

Hoje, 30 Julho, Sexta-feira

Tempo Temperatura Precipitação Vento Pressão Humidade
00:00 +20°C° 0 mm 3 m/s 750 mmHg 61%
01:00 +19°C° 0 mm 2 m/s 750 mmHg 62%
02:00 +19°C° 0 mm 2 m/s 750 mmHg 63%
03:00 +19°C° 0 mm 2 m/s 750 mmHg 63%
04:00 +19°C° 0 mm 2 m/s 750 mmHg 63%
05:00 +20°C° 0 mm 2 m/s 750 mmHg 63%
06:00 +20°C° 0 mm 3 m/s 750 mmHg 62%
07:00 +20°C° 0 mm 3 m/s 750 mmHg 61%
08:00 +22°C° 0 mm 4 m/s 750 mmHg 55%
09:00 +23°C° 0 mm 5 m/s 750 mmHg 50%
10:00 +24°C° 0 mm 6 m/s 750 mmHg 44%
11:00 +26°C° 0 mm 6 m/s 750 mmHg 42%
12:00 +27°C° 0 mm 6 m/s 749 mmHg 41%
13:00 +27°C° 0 mm 7 m/s 749 mmHg 39%
14:00 +27°C° 0 mm 6 m/s 749 mmHg 41%
15:00 +27°C° 0 mm 6 m/s 749 mmHg 42%
16:00 +27°C° 0 mm 5 m/s 749 mmHg 44%
17:00 +26°C° 0 mm 4 m/s 748 mmHg 48%
18:00 +25°C° 0 mm 3 m/s 748 mmHg 52%
19:00 +24°C° 0 mm 3 m/s 748 mmHg 57%
20:00 +23°C° 0 mm 2 m/s 748 mmHg 59%
21:00 +21°C° 0 mm 2 m/s 748 mmHg 62%
22:00 +20°C° 0 mm 2 m/s 748 mmHg 64%
23:00 +20°C° 0 mm 2 m/s 748 mmHg 66%

Amanhã, 31 Julho, Sábado

Tempo Temperatura Precipitação Vento Pressão Humidade
00:00 +19°C° 0 mm 2 m/s 748 mmHg 68%
01:00 +18°C° 0 mm 2 m/s 749 mmHg 70%
02:00 +18°C° 0 mm 2 m/s 748 mmHg 70%
03:00 +18°C° 0 mm 1 m/s 748 mmHg 70%
04:00 +18°C° 0 mm 1 m/s 748 mmHg 71%
05:00 +20°C° 0 mm 1 m/s 748 mmHg 66%
06:00 +21°C° 0 mm 1 m/s 749 mmHg 61%
07:00 +23°C° 0 mm 1 m/s 749 mmHg 56%
08:00 +25°C° 0 mm 2 m/s 748 mmHg 51%
09:00 +27°C° 0 mm 2 m/s 748 mmHg 46%
10:00 +29°C° 0 mm 2 m/s 748 mmHg 40%
11:00 +29°C° 0 mm 2 m/s 748 mmHg 39%
12:00 +30°C° 0 mm 2 m/s 747 mmHg 38%
13:00 +31°C° 0 mm 3 m/s 747 mmHg 38%
14:00 +30°C° 0.1 mm 3 m/s 747 mmHg 43%
15:00 +29°C° 0.1 mm 3 m/s 747 mmHg 48%
16:00 +28°C° 0.1 mm 4 m/s 747 mmHg 53%
17:00 +26°C° 0.8 mm 4 m/s 747 mmHg 62%
18:00 +23°C° 0.8 mm 4 m/s 747 mmHg 72%
19:00 +22°C° 0.8 mm 4 m/s 747 mmHg 81%
20:00 +21°C° 0 mm 3 m/s 747 mmHg 82%
21:00 +20°C° 0 mm 3 m/s 747 mmHg 84%
22:00 +19°C° 0 mm 3 m/s 748 mmHg 86%
23:00 +19°C° 0 mm 3 m/s 748 mmHg 85%

Depois de amanhã, 1 Agosto, Domingo

Tempo Temperatura Precipitação Vento Pressão Humidade
00:00 +18°C° 0 mm 3 m/s 748 mmHg 84%
01:00 +18°C° 0 mm 3 m/s 748 mmHg 84%
02:00 +17°C° 0 mm 2 m/s 748 mmHg 82%
03:00 +17°C° 0 mm 2 m/s 748 mmHg 80%
04:00 +16°C° 0 mm 2 m/s 749 mmHg 78%
05:00 +18°C° 0 mm 2 m/s 749 mmHg 72%
06:00 +19°C° 0 mm 2 m/s 749 mmHg 66%
07:00 +21°C° 0 mm 2 m/s 749 mmHg 60%
08:00 +23°C° 0 mm 2 m/s 749 mmHg 55%
09:00 +24°C° 0 mm 2 m/s 749 mmHg 49%
10:00 +26°C° 0 mm 2 m/s 749 mmHg 44%
11:00 +25°C° 0 mm 2 m/s 749 mmHg 46%
12:00 +25°C° 0 mm 2 m/s 749 mmHg 48%
13:00 +25°C° 0 mm 2 m/s 749 mmHg 50%
14:00 +22°C° 0 mm 3 m/s 749 mmHg 56%
15:00 +21°C° 0 mm 4 m/s 749 mmHg 62%
16:00 +20°C° 0 mm 4 m/s 748 mmHg 69%
17:00 +19°C° 0.2 mm 4 m/s 748 mmHg 72%
18:00 +18°C° 0.2 mm 3 m/s 748 mmHg 76%
19:00 +17°C° 0.2 mm 3 m/s 748 mmHg 79%
20:00 +17°C° 0 mm 2 m/s 748 mmHg 80%
21:00 +17°C° 0 mm 2 m/s 748 mmHg 81%
22:00 +18°C° 0 mm 1 m/s 748 mmHg 81%
23:00 +17°C° 0.1 mm 2 m/s 748 mmHg 83%

2 Agosto, Segunda-feira

Tempo Temperatura Precipitação Vento Pressão Humidade
00:00 +16°C° 0.1 mm 2 m/s 748 mmHg 85%
01:00 +16°C° 0.1 mm 2 m/s 748 mmHg 87%
02:00 +16°C° 0.8 mm 2 m/s 748 mmHg 90%
03:00 +16°C° 0.8 mm 3 m/s 748 mmHg 93%
04:00 +16°C° 0.8 mm 3 m/s 748 mmHg 96%
05:00 +16°C° 0.9 mm 3 m/s 748 mmHg 95%
06:00 +16°C° 0.9 mm 2 m/s 748 mmHg 95%
07:00 +16°C° 0.9 mm 2 m/s 748 mmHg 94%
08:00 +18°C° 0.6 mm 3 m/s 749 mmHg 85%
09:00 +20°C° 0.6 mm 3 m/s 749 mmHg 75%
10:00 +21°C° 0.6 mm 4 m/s 749 mmHg 66%
11:00 +23°C° 0.2 mm 4 m/s 749 mmHg 59%
12:00 +25°C° 0.2 mm 5 m/s 749 mmHg 52%
13:00 +26°C° 0.2 mm 5 m/s 749 mmHg 46%
14:00 +25°C° 0 mm 5 m/s 749 mmHg 48%
15:00 +24°C° 0 mm 6 m/s 749 mmHg 51%
16:00 +23°C° 0 mm 6 m/s 749 mmHg 54%
17:00 +22°C° 0.1 mm 5 m/s 749 mmHg 60%
18:00 +21°C° 0.1 mm 5 m/s 750 mmHg 67%
19:00 +19°C° 0.1 mm 4 m/s 750 mmHg 73%
20:00 +18°C° 0.1 mm 4 m/s 750 mmHg 76%
21:00 +18°C° 0.1 mm 3 m/s 751 mmHg 79%
22:00 +17°C° 0.1 mm 2 m/s 751 mmHg 83%
23:00 +16°C° 0 mm 3 m/s 751 mmHg 84%

3 Agosto, Terça-feira

Tempo Temperatura Precipitação Vento Pressão Humidade
00:00 +16°C° 0 mm 3 m/s 751 mmHg 84%
01:00 +14°C° 0 mm 3 m/s 751 mmHg 85%
02:00 +14°C° 0 mm 3 m/s 752 mmHg 84%
03:00 +14°C° 0 mm 3 m/s 752 mmHg 82%
04:00 +13°C° 0 mm 3 m/s 752 mmHg 80%
05:00 +14°C° 0 mm 4 m/s 752 mmHg 75%
06:00 +16°C° 0 mm 5 m/s 753 mmHg 70%
07:00 +17°C° 0 mm 5 m/s 753 mmHg 64%
08:00 +19°C° 0 mm 5 m/s 753 mmHg 59%
09:00 +20°C° 0 mm 6 m/s 753 mmHg 53%
10:00 +22°C° 0 mm 6 m/s 753 mmHg 47%
11:00 +23°C° 0 mm 6 m/s 753 mmHg 45%
12:00 +23°C° 0 mm 6 m/s 753 mmHg 42%
13:00 +25°C° 0 mm 5 m/s 753 mmHg 39%
14:00 +25°C° 0 mm 5 m/s 753 mmHg 39%
15:00 +25°C° 0 mm 4 m/s 753 mmHg 39%
16:00 +25°C° 0 mm 4 m/s 753 mmHg 39%
17:00 +24°C° 0 mm 3 m/s 753 mmHg 45%
18:00 +21°C° 0 mm 2 m/s 753 mmHg 50%
19:00 +21°C° 0 mm 1 m/s 753 mmHg 56%
20:00 +20°C° 0 mm 1 m/s 753 mmHg 58%
21:00 +19°C° 0 mm 1 m/s 754 mmHg 61%
22:00 +18°C° 0 mm 1 m/s 754 mmHg 63%
23:00 +18°C° 0 mm 1 m/s 754 mmHg 65%

4 Agosto, Quarta-feira

Tempo Temperatura Precipitação Vento Pressão Humidade
00:00 +16°C° 0 mm 1 m/s 754 mmHg 67%
01:00 +16°C° 0 mm 2 m/s 754 mmHg 68%
02:00 +16°C° 0 mm 2 m/s 754 mmHg 69%
03:00 +15°C° 0 mm 2 m/s 754 mmHg 69%
04:00 +15°C° 0 mm 2 m/s 754 mmHg 70%
05:00 +17°C° 0 mm 2 m/s 754 mmHg 65%
06:00 +18°C° 0 mm 2 m/s 754 mmHg 60%
07:00 +20°C° 0 mm 2 m/s 754 mmHg 54%
08:00 +23°C° 0 mm 2 m/s 754 mmHg 49%
09:00 +24°C° 0 mm 2 m/s 754 mmHg 44%
10:00 +26°C° 0 mm 2 m/s 754 mmHg 39%
11:00 +26°C° 0 mm 2 m/s 754 mmHg 37%
12:00 +27°C° 0 mm 2 m/s 754 mmHg 36%
13:00 +28°C° 0 mm 2 m/s 753 mmHg 35%
14:00 +27°C° 0 mm 2 m/s 753 mmHg 37%
15:00 +27°C° 0 mm 2 m/s 753 mmHg 40%
16:00 +26°C° 0 mm 2 m/s 753 mmHg 42%
17:00 +25°C° 0 mm 2 m/s 753 mmHg 50%
18:00 +24°C° 0 mm 2 m/s 753 mmHg 57%
19:00 +21°C° 0 mm 2 m/s 753 mmHg 64%
20:00 +20°C° 0 mm 2 m/s 753 mmHg 68%
21:00 +20°C° 0 mm 2 m/s 753 mmHg 71%
22:00 +19°C° 0 mm 2 m/s 754 mmHg 74%
23:00 +19°C° 0 mm 2 m/s 754 mmHg 75%
Mostrar mais

Necessitamos do seu Consentimento

A Meteoprog e os seus Fornecedores de Serviços podem armazenar e aceder a dados pessoais como cookies, identificadores do dispositivo ou outras tecnologias semelhantes existentes no seu dispositivo e processar estes dados para personalizar conteúdos e anúncios, assim como funcionalidades nas redes sociais e análise de tráfego.

  • Armazenar e/ou aceder a informações no seu dispositivo

    Os cookies, identificadores do dispositivo ou outras informações podem ser armazenados ou acedidos no seu dispositivo, para os fins acima indicados.

  • Anúncios e conteúdos personalizados, medição de anúncios e conteúdos, dados sobre o público-alvo e desenvolvimento de produtos

    Os anúncios e os conteúdos podem ser personalizados com base num perfil. Podem ser adicionados dados adicionais para uma maior personalização dos anúncios e dos conteúdos. A eficácia dos anúncios e dos conteúdos pode ser medida. Podem ser obtidas informações sobre o público que visualizou os anúncios e os conteúdos. Estes dados podem ser usados para desenvolver ou melhorar sistemas, softwares ou a experiência do utilizador.

Ao clicar em "Eu concordo”, permitirá o uso de cookies, identificadores do dispositivo e web beacons mencionados ou outras tecnologias semelhantes. As configurações do navegador do seu dispositivo podem ser alteradas.

Para certos fins, podem ser invocados interesses legítimos ao invés de consentimento. Pode ler mais informação sobre este assunto na nossa Política de Privacidade e Cookies.